Location: Newark
(47.5833°N, 8.1500°E)
Time: 14:00:38
(UTC+00:00)

Altair - All Passes

Search period start: 30 October 2020 00:00
Search period end: 09 November 2020 00:00
Orbit: 1502 x 1682 km, 47.2° (Epoch: 29 October)

Date Brightness Start Highest point End Pass type
(mag) Time Alt. Az. Time Alt. Az. Time Alt. Az.
30 Oct - 03:03:44 10° SSW 03:11:43 35° SE 03:19:55 10° ENE visible
30 Oct - 05:06:11 10° WSW 05:15:27 73° SSE 05:25:03 10° ENE visible
30 Oct - 07:10:42 10° W 07:20:11 88° S 07:30:04 10° E daylight
30 Oct - 09:15:22 10° WNW 09:24:49 63° SSW 09:34:35 10° SE daylight
30 Oct - 11:20:42 10° W 11:28:20 27° SW 11:36:10 10° S daylight
31 Oct - 02:38:54 10° SSW 02:46:41 32° SE 02:54:37 10° ENE visible
31 Oct - 04:41:06 10° WSW 04:50:17 71° SSE 04:59:50 10° ENE visible
31 Oct - 06:45:32 10° W 06:54:59 89° S 07:04:50 10° E daylight
31 Oct - 08:50:13 10° WNW 08:59:39 66° SSW 09:09:27 10° SE daylight
31 Oct - 10:55:23 10° W 11:03:16 29° SW 11:11:21 10° S daylight
01 Nov - 02:14:06 10° S 02:21:38 30° SE 02:29:20 10° E visible
01 Nov - 04:16:01 10° SW 04:25:09 68° SSE 04:34:37 10° ENE visible
01 Nov - 06:20:22 10° W 06:29:47 89° S 06:39:36 10° E daylight
01 Nov - 08:25:03 10° WNW 08:34:29 69° SSW 08:44:18 10° ESE daylight
01 Nov - 10:30:07 10° WNW 10:38:11 31° SW 10:46:30 10° SSE daylight
02 Nov - 01:49:21 10° S 01:56:37 27° SE 02:04:01 10° E visible
02 Nov - 03:50:56 10° SW 04:00:01 65° SSE 04:09:24 10° ENE visible
02 Nov - 05:55:12 10° W 06:04:36 89° S 06:14:22 10° E daylight
02 Nov - 07:59:54 10° WNW 08:09:20 71° SSW 08:19:08 10° ESE daylight
02 Nov - 10:04:51 10° WNW 10:13:07 34° SW 10:21:39 10° SSE daylight
03 Nov - 01:24:37 10° S 01:31:35 25° SE 01:38:40 10° E visible
03 Nov - 03:25:52 10° SW 03:34:53 62° SSE 03:44:12 10° ENE visible
03 Nov - 05:30:03 10° W 05:39:24 88° S 05:49:08 10° E visible
03 Nov - 07:34:44 10° WNW 07:44:09 74° SSW 07:53:57 10° ESE daylight
03 Nov - 09:39:37 10° WNW 09:48:02 36° SW 09:56:44 10° SSE daylight
04 Nov - 00:59:57 10° S 01:06:35 23° SE 01:13:17 10° E visible
04 Nov - 03:00:49 10° SW 03:09:46 59° SSE 03:18:59 10° ENE visible
04 Nov - 05:04:53 10° W 05:14:13 88° S 05:23:54 10° E visible
04 Nov - 07:09:35 10° WNW 07:18:59 76° SSW 07:28:46 10° ESE daylight
04 Nov - 09:14:23 10° WNW 09:22:57 38° SW 09:31:48 10° SSE daylight
04 Nov - 11:25:05 10° WSW 11:25:34 10° WSW 11:26:04 10° SW daylight
05 Nov - 00:35:20 10° S 00:41:34 21° SE 00:47:52 10° E visible
05 Nov - 02:35:47 10° SW 02:44:40 56° SSE 02:53:46 10° ENE visible
05 Nov - 04:39:44 10° W 04:49:02 87° S 04:58:41 10° E visible
05 Nov - 06:44:25 10° W 06:53:49 78° SSW 07:03:36 10° ESE daylight
05 Nov - 08:49:11 10° WNW 08:57:52 41° SW 09:06:50 10° SSE daylight
05 Nov - 10:57:40 10° WSW 11:00:35 12° WSW 11:03:32 10° SW daylight
06 Nov - 00:10:48 10° SSE 00:16:34 19° SE 00:22:24 10° E visible
06 Nov - 02:10:46 10° SW 02:19:33 53° SSE 02:28:34 10° ENE visible
06 Nov - 04:14:35 10° WSW 04:23:52 86° S 04:33:28 10° E visible
06 Nov - 06:19:16 10° W 06:28:39 80° SSW 06:38:24 10° ESE daylight
06 Nov - 08:23:59 10° WNW 08:32:46 44° SW 08:41:50 10° SSE daylight
06 Nov - 10:31:34 10° W 10:35:35 13° WSW 10:39:39 10° SSW daylight
06 Nov - 23:46:19 10° SSE 23:51:35 17° SE 23:56:52 10° E visible
07 Nov - 01:45:46 10° SW 01:54:28 50° SSE 02:03:22 10° ENE visible
07 Nov - 03:49:26 10° WSW 03:58:41 85° SSE 04:08:15 10° E visible
07 Nov - 05:54:06 10° W 06:03:28 82° SSW 06:13:12 10° ESE daylight
07 Nov - 07:58:48 10° WNW 08:07:39 46° SW 08:16:50 10° SSE daylight
07 Nov - 10:05:46 10° W 10:10:34 15° SW 10:15:27 10° SSW daylight
07 Nov - 23:21:59 10° SSE 23:26:36 15° SE 23:31:14 10° E visible
08 Nov - 01:20:47 10° SW 01:29:23 47° SE 01:38:09 10° ENE visible
08 Nov - 03:24:17 10° WSW 03:33:31 83° SSE 03:43:02 10° E visible
08 Nov - 05:28:57 10° W 05:38:18 84° SSW 05:47:59 10° ESE visible
08 Nov - 07:33:37 10° WNW 07:42:33 49° SW 07:51:48 10° SE daylight
08 Nov - 09:40:08 10° W 09:45:34 17° SW 09:51:05 10° SSW daylight
08 Nov - 22:57:49 10° SSE 23:01:37 13° SE 23:05:27 10° E night (unlit)
